Tracking 19720 objects as of 26-Jun-2019
HD Live streaming from Space Station
objects crossing your sky now

GORIZONT 6

Track GORIZONT 6 now!
GORIZONT 6 is classified as:


NORAD ID: 13624
Int'l Code: 1982-103A
Perigee: 35,761.6 km
Apogee: 35,776.3 km
Inclination: 12.5 °
Period: 1,434.8 minutes
Semi major axis: 42139 km
RCS: 3.1622 m2 (large)
Launch date: October 20, 1982
Source: Commonwealth of Independent States (former USSR) (CIS)
Launch site: TYURATAM MISSILE AND SPACE COMPLEX (TTMTR)
aabbcc
Your satellite tracking list
Your tracking list is empty




NASA's NSSDC Master Catalog

Two Line Element Set (TLE):
1 13624U 82103A   19175.53729866  .00000078  00000-0  00000+0 0  9993
2 13624  12.5390 325.7413 0001747 353.4975   7.1882  1.00360339 95362
Source of the keplerian elements: AFSPC